Home > Weather > Worcester > Past weeks

Flag for South Africa Weather for the Past 2 Weeks in Worcester, South Africa

Now
68 °F

Passing clouds.


Feels Like: 68 °F
Forecast: 56 / 93 °F
Wind: 22 mph from South

Location: Cape Town International Airport

Current Time: Feb 7, 2016 at 4:06:26 AM

Latest Report: Feb 7, 2016 at 3:00 AM


Visibility: N/A

Pressure: 30.04 "Hg

Humidity: 83%

Dew point: 63 °F

Location of WorcesterLocation

Historic Weather in Worcester — Graph

°F

Worcester Temperature Yesterday

Maximum temperature yesterday: 82 °F (at 3:00 PM)
Minimum temperature yesterday: 66 °F (at 1:00 AM)
Average temperature yesterday: 73 °F

High & Low Weather Summary for the Past Weeks

 TemperatureHumidityPressure
High91 °F (Jan 31, 2:00 PM)94% (Jan 25, 2:00 AM)30.09 "Hg (Jan 25, 2:00 AM)
Low61 °F (Jan 26, 1:00 AM)31% (Feb 5, 1:00 PM)29.74 "Hg (Feb 1, 3:00 AM)
Average72 °F69%29.92 "Hg
* Reported Jan 23 2:00 AM — Feb 7 2:00 AM, Worcester, Weather by CustomWeather, © 2016

Note: Actual official high and low records may vary slightly from our data, if they occured in-between our weather recording intervals... More about our weather records

Advertising

Worcester Weather History for the Previous 24 Hours

 ConditionsComfort  
Time TempWeatherWind HumidityBarometerVisibility
2:00 AM
Sun, Feb 7
68 °FPartly cloudy.21 mph83%30.07 "HgN/A
1:00 AM68 °FPassing clouds.17 mph88%30.07 "HgN/A
12:00 AM68 °FPassing clouds.17 mph88%30.07 "HgN/A
11:00 PM
Sat, Feb 6
70 °FPassing clouds.15 mph73%30.07 "HgN/A
10:00 PM70 °FPassing clouds.14 mph73%30.04 "HgN/A
9:00 PM72 °FPassing clouds.17 mph69%30.04 "HgN/A
8:00 PM72 °FPassing clouds.14 mph69%30.01 "HgN/A
7:00 PM75 °FClear.20 mph57%30.01 "Hg10 mi
6:00 PM75 °FPassing clouds.16 mph65%29.98 "HgN/A
5:00 PM79 °FPassing clouds.18 mph58%29.95 "HgN/A
4:00 PM81 °FPassing clouds.14 mph51%29.92 "HgN/A
3:00 PM82 °FPassing clouds.18 mph51%29.92 "HgN/A
2:00 PM81 °FPassing clouds.7 mph58%29.92 "HgN/A
1:00 PM79 °FPassing clouds.13 mph61%29.92 "HgN/A
12:00 PM79 °FPassing clouds.15 mph61%29.89 "HgN/A
11:00 AM77 °FPassing clouds.16 mph65%29.89 "HgN/A
10:00 AM73 °FPassing clouds.18 mph74%29.86 "HgN/A
9:00 AM75 °FPassing clouds.10 mph65%29.83 "HgN/A
8:00 AM72 °FSunny.9 mph69%29.80 "Hg10 mi
7:00 AM70 °FSunny.10 mph69%29.77 "Hg10 mi
6:00 AM70 °FSunny.14 mph64%29.77 "Hg10 mi
5:00 AM70 °FClear.8 mph64%29.74 "Hg10 mi
4:00 AM66 °FPassing clouds.3 mph73%29.74 "HgN/A
Weather by CustomWeather, © 2016

See weather overviewHow to use our weather pages